Wind_Speed
43 46 49 51 52 52 53 55 56 57 57 57 58 58 58 57 56 55 55 54 54 53 51 50 50 48 46 44 43 44 43 42 40 38 38 37 35 33 32 31 30 30 29 27 27 26 25 24 24 24 24 23 21 17 15 14 13 12 11 11 13 13 12
41 44 47 49 51 52 54 56 57 58 58 58 59 58 58 58 58 57 56 55 54 53 52 51 50 49 47 44 43 43 44 43 41 39 38 37 36 35 34 32 31 31 29 28 27 26 26 26 25 25 25 23 21 18 17 16 15 14 13 13 14 14 14
40 44 47 49 51 54 55 56 57 58 58 58 58 58 59 59 59 58 57 55 54 53 52 51 50 48 47 44 43 43 43 44 42 41 40 38 36 36 35 34 32 31 30 28 27 27 27 27 26 25 25 24 22 20 19 18 16 16 15 15 16 15 14
40 45 49 52 54 55 56 57 57 58 58 58 59 59 59 60 59 58 57 56 54 53 52 51 50 48 47 45 43 42 43 44 43 42 41 39 37 36 36 35 34 33 32 30 28 27 28 28 27 26 25 25 24 22 21 20 18 17 17 17 17 17 16
40 44 48 51 53 55 56 57 57 58 58 58 58 58 59 58 57 57 56 55 54 53 51 50 49 48 47 45 43 42 41 43 43 42 41 40 38 37 37 37 36 34 33 30 29 28 29 30 28 27 27 26 25 23 22 21 20 19 19 18 19 18 17
40 42 44 48 52 54 55 56 57 58 58 58 57 57 57 56 56 56 56 55 54 53 51 50 49 48 47 46 44 42 41 41 43 43 42 40 39 39 39 38 36 35 33 32 31 30 30 30 30 29 28 28 26 25 24 23 22 22 21 20 20 20 19
42 43 43 47 50 53 55 56 57 57 57 56 55 54 54 55 55 55 55 55 54 53 52 51 49 48 47 46 45 43 41 41 42 43 43 41 40 40 40 39 38 36 34 33 33 32 32 32 31 31 30 29 28 26 25 24 24 24 24 22 22 21 20
45 46 47 48 49 52 53 55 56 55 54 53 52 53 53 54 55 55 55 55 54 53 53 52 50 48 47 46 45 43 40 39 40 42 43 42 41 42 41 40 39 37 36 36 35 34 33 33 33 32 31 30 29 28 27 26 26 26 26 25 24 23 22
47 49 52 52 52 53 53 55 56 54 52 52 52 53 53 54 55 55 56 56 55 54 54 53 51 48 47 46 46 44 41 39 39 41 43 43 43 43 43 42 40 39 39 38 37 36 35 34 34 33 33 32 31 30 29 29 28 28 28 27 26 25 24
46 48 52 54 54 54 54 54 53 51 51 51 51 52 52 53 54 55 55 55 55 55 54 52 50 49 48 47 46 45 42 40 38 40 43 44 44 44 44 44 42 41 41 40 39 38 36 36 35 34 34 34 33 33 32 32 31 30 30 28 27 26 24
45 48 50 52 52 52 52 50 47 48 50 51 52 52 52 53 53 54 54 54 54 54 52 51 50 50 50 48 47 47 45 42 39 40 43 45 45 45 45 45 44 43 42 41 41 40 39 38 37 37 36 36 35 35 34 34 33 33 32 30 29 27 25
43 46 49 50 50 51 50 47 46 48 50 51 51 52 51 52 52 53 53 53 53 52 52 51 51 51 51 50 49 49 47 44 42 40 41 44 46 46 46 46 45 44 44 43 42 42 41 40 40 39 39 38 37 36 35 35 35 34 33 31 30 28 27
41 45 48 49 49 48 48 47 47 49 50 51 51 52 52 52 52 53 52 53 53 52 51 51 51 51 52 51 51 50 49 47 44 41 41 43 46 47 47 47 46 45 45 44 44 44 43 42 42 41 41 39 38 37 37 36 36 36 35 33 32 30 28
39 41 45 47 47 46 46 46 48 49 50 51 51 51 52 52 52 52 52 53 53 52 52 52 52 52 52 52 52 51 50 49 46 42 40 42 45 47 48 48 47 46 46 45 46 46 45 44 43 42 41 40 39 39 38 38 38 38 37 36 34 32 30
34 35 36 37 41 44 46 46 47 47 49 50 50 51 51 51 52 52 52 53 53 53 53 53 53 53 53 53 53 52 51 49 48 45 41 41 44 47 49 49 48 47 47 47 46 46 46 45 44 43 42 41 41 40 40 40 40 40 39 38 36 34 31
32 34 35 36 38 41 44 46 45 46 47 48 49 49 50 51 52 52 52 53 53 54 54 53 54 54 53 53 53 53 51 50 49 47 44 43 45 47 49 50 50 49 49 48 47 47 46 46 45 44 43 43 42 42 42 42 42 41 40 39 38 35 32
31 35 38 40 42 42 42 43 44 45 46 47 47 47 49 50 50 51 51 52 53 55 55 55 54 55 55 54 53 52 51 51 51 50 47 46 46 47 49 50 51 51 50 49 48 47 47 47 46 45 44 44 43 43 44 44 43 41 41 41 39 36 33
30 34 38 40 43 43 42 42 43 44 45 46 45 46 47 48 49 49 50 52 53 55 54 55 55 55 55 54 52 52 52 52 51 51 50 48 47 48 49 51 52 51 50 49 48 47 47 47 46 45 45 44 44 44 44 44 42 42 41 41 39 36 33
31 32 37 40 41 41 42 43 44 45 45 45 44 43 44 46 48 50 51 53 55 55 54 55 55 55 55 54 52 51 51 52 52 52 51 50 49 49 50 51 52 52 51 50 48 47 47 47 46 45 44 44 45 44 44 43 42 42 41 40 38 35 33
30 30 32 35 38 40 42 43 44 45 46 43 41 39 41 45 47 49 51 53 54 54 54 55 55 55 54 54 53 51 51 52 52 52 51 50 49 50 51 52 52 52 51 49 48 48 48 47 46 45 44 44 44 43 43 42 42 41 40 38 36 34 33
29 30 31 32 36 40 43 44 45 46 44 41 39 39 42 45 47 49 51 54 55 55 55 56 56 55 54 54 53 52 51 52 52 52 51 50 49 49 50 51 51 51 50 50 49 49 48 47 46 44 44 44 43 43 42 41 41 40 37 35 33 32 31
18 23 28 31 34 39 41 43 44 44 43 43 41 42 44 46 48 51 53 54 54 55 55 55 55 55 55 54 54 53 52 52 52 51 51 49 49 49 49 50 50 50 50 49 49 48 47 46 44 44 43 43 42 42 41 40 39 38 35 33 30 29 29
5 13 21 25 30 37 40 41 42 42 44 46 45 44 46 47 50 53 54 55 55 55 55 55 55 55 55 55 55 55 53 53 52 51 50 49 48 48 48 49 49 50 49 48 48 48 46 45 44 43 43 43 42 41 40 39 37 35 32 30 28 27 28
8 1 10 18 26 34 39 42 44 45 47 47 47 47 47 48 52 54 55 55 55 55 54 54 55 56 56 56 56 56 55 54 53 52 51 50 49 48 48 48 48 48 48 48 48 46 44 43 43 43 43 42 41 39 38 37 35 32 29 27 25 25 26
12 10 3 6 16 29 37 41 44 46 47 47 47 47 47 49 52 54 55 55 54 54 54 55 56 57 57 57 57 57 56 54 53 52 51 50 49 48 47 46 46 46 46 47 46 44 42 42 42 42 42 40 39 37 35 33 31 28 26 24 23 23 24
10 10 8 5 2 13 26 36 42 45 47 46 44 44 47 50 51 52 53 52 52 52 53 54 55 55 57 58 57 57 56 55 54 53 52 51 50 48 47 46 45 46 46 46 45 43 41 42 42 41 40 38 36 34 31 29 27 25 23 22 21 21 23
9 8 7 5 4 3 8 21 33 41 44 44 43 45 47 47 48 50 51 50 51 52 51 51 51 52 54 56 57 56 55 55 55 54 53 52 51 49 48 46 46 46 46 46 45 43 42 42 41 39 38 36 33 31 28 25 23 21 20 19 19 20 22
9 8 8 7 6 7 7 8 18 30 39 42 44 47 50 49 47 48 49 51 51 50 48 48 50 51 53 55 56 56 56 55 55 54 52 51 51 50 49 48 47 47 47 46 44 43 42 41 40 38 35 32 29 27 24 22 20 19 18 17 17 19 21
12 10 9 9 10 11 10 10 11 16 28 39 43 43 45 49 51 51 52 53 52 50 49 51 52 53 54 55 56 56 55 54 54 53 52 51 52 52 51 50 49 49 49 47 44 43 42 41 38 35 32 29 26 24 22 21 20 18 17 16 18 20 21
13 12 10 10 11 11 12 13 12 12 17 27 36 39 37 40 46 49 50 50 48 46 47 51 53 53 53 54 55 55 54 53 52 52 52 52 53 53 52 52 52 51 49 46 44 43 42 39 36 34 31 28 26 24 22 21 18 16 16 17 18 20 21
13 12 11 11 10 11 12 14 14 13 14 16 23 31 34 34 38 42 44 43 42 39 37 38 43 48 50 50 52 52 52 51 50 50 52 53 54 54 54 54 54 51 48 45 44 43 41 38 35 33 30 27 26 24 22 19 16 14 16 18 19 19 20
10 11 12 12 12 12 13 14 14 14 15 15 16 21 26 31 35 38 40 40 39 38 34 28 29 36 43 46 49 50 49 49 49 49 51 53 54 54 55 55 54 51 48 45 43 41 39 36 33 30 28 26 25 23 21 19 16 16 18 20 21 20 20
9 9 11 13 15 14 14 14 14 14 16 19 20 20 22 27 31 34 36 36 34 34 35 31 28 31 36 41 44 46 46 46 47 48 48 50 52 52 52 51 51 49 45 40 37 36 35 33 31 29 27 26 24 22 21 19 19 19 21 23 23 23 22
9 9 10 12 15 16 16 16 16 16 17 20 22 24 25 27 30 31 32 33 34 35 37 39 38 36 36 37 40 43 45 46 48 49 49 49 49 48 48 46 45 43 37 32 34 37 36 33 31 29 28 26 24 22 21 21 22 23 24 24 23 23 23
9 8 10 10 12 15 17 18 18 17 16 18 21 24 26 28 31 34 33 35 39 40 39 41 43 42 40 41 42 43 45 49 51 52 53 52 49 47 46 43 38 34 30 31 36 38 35 32 30 27 26 25 22 20 20 22 23 22 22 21 20 20 20
10 9 9 9 10 11 14 17 17 16 14 15 17 20 22 24 27 32 36 39 43 44 41 41 42 41 42 45 49 50 50 51 53 53 52 53 50 46 43 40 35 31 31 33 34 31 27 23 22 23 23 23 19 15 16 19 21 21 19 17 16 16 16
14 13 12 10 9 8 8 10 11 11 10 11 14 17 20 21 23 27 32 35 36 36 35 38 41 42 42 42 45 52 56 55 53 54 53 51 49 46 42 39 35 32 31 32 30 26 23 20 19 20 20 17 15 14 14 16 18 18 17 15 15 15 16
18 17 15 13 11 8 5 5 5 6 7 8 9 12 16 19 21 24 28 30 31 32 34 37 41 45 46 38 32 41 53 54 49 47 46 44 42 41 40 39 37 35 32 30 27 25 24 22 19 17 15 13 15 17 19 19 18 16 15 15 16 16 17
Wind_Direction
196 198 199 200 201 202 204 205 206 208 209 210 211 211 211 211 211 212 213 215 217 218 219 220 220 221 223 226 228 228 228 227 224 224 224 224 222 222 222 223 225 225 225 227 227 225 221 218 216 216 217 219 220 219 217 215 214 217 225 231 230 226 219
196 199 199 200 201 202 205 207 208 209 210 211 211 211 211 211 211 211 213 214 216 218 219 220 221 222 223 226 228 228 229 228 226 225 224 224 222 221 224 227 228 227 227 228 229 227 224 219 216 217 216 217 219 219 219 218 217 223 230 231 231 230 223
196 198 199 201 202 204 206 208 209 210 211 211 211 211 211 212 212 212 213 213 214 216 218 220 221 222 223 225 227 228 229 228 227 226 225 224 222 220 223 227 229 230 229 228 228 227 224 220 218 218 217 217 218 218 217 217 219 225 230 231 231 230 225
196 197 199 201 203 205 207 208 210 211 212 212 212 212 213 213 213 213 213 214 214 216 217 220 221 222 224 224 225 227 228 228 228 227 226 225 222 221 222 225 227 229 229 227 225 225 223 222 220 219 217 216 217 217 216 216 218 222 225 226 228 228 226
198 196 198 200 202 205 206 208 210 212 212 213 213 214 214 213 212 212 213 214 216 218 220 221 221 221 223 224 225 226 228 228 228 227 226 225 223 222 222 225 226 228 228 226 225 224 222 222 221 219 217 216 216 217 218 217 216 218 220 221 223 225 223
202 198 197 199 201 204 206 207 211 213 213 213 213 213 212 211 211 211 212 213 216 219 220 220 220 220 221 222 224 225 226 228 228 227 226 225 223 223 223 225 227 227 227 226 225 224 223 223 222 221 219 218 217 217 219 218 215 215 218 220 222 223 222
205 203 201 202 202 205 207 208 212 213 213 212 212 212 210 210 210 211 212 213 216 217 217 217 219 220 221 221 222 223 224 226 227 227 227 225 223 223 224 226 227 228 228 227 227 226 225 225 224 223 222 222 221 220 221 222 217 215 218 221 222 223 222
205 205 205 205 205 207 208 209 211 212 211 210 209 210 210 209 210 210 211 213 215 216 216 216 217 218 220 221 221 222 223 225 227 227 227 226 224 224 224 226 228 228 228 228 228 227 227 227 226 225 224 224 224 224 224 225 222 219 220 222 222 222 222
206 206 207 208 208 208 209 209 211 210 209 208 208 209 209 208 209 210 212 213 214 215 216 215 216 218 219 220 221 221 221 223 226 227 227 226 225 224 224 226 228 228 229 230 229 228 228 230 229 227 226 226 227 227 227 227 225 223 223 223 222 222 223
205 205 207 208 208 208 208 208 209 208 206 206 206 208 209 208 209 210 211 212 213 215 215 215 215 217 218 220 221 221 220 221 224 226 226 226 225 225 224 225 227 229 229 230 230 229 229 230 231 230 229 229 229 229 229 229 228 227 226 226 225 224 225
203 204 206 207 207 207 207 207 205 205 205 205 206 207 208 208 209 210 210 212 213 214 214 214 214 215 217 219 220 220 219 220 222 225 226 226 225 225 225 225 227 229 230 230 230 229 230 230 231 231 230 231 232 232 232 232 231 231 230 229 228 227 228
201 204 205 207 207 207 207 206 205 205 205 206 205 206 208 209 209 209 210 212 213 214 213 214 214 214 216 218 218 218 219 220 221 223 226 226 225 225 226 226 227 229 229 230 230 230 230 230 231 232 232 232 233 234 234 234 235 235 235 233 231 229 229
200 204 206 207 207 207 207 206 206 206 206 207 207 207 209 210 210 210 211 212 213 213 213 213 214 214 215 217 217 218 219 220 221 223 225 226 225 225 226 226 227 229 229 230 230 230 231 231 232 233 234 233 234 235 236 237 237 238 238 237 235 233 231
206 208 208 207 206 206 205 206 207 206 206 208 208 208 209 211 212 212 213 213 213 213 213 214 214 214 215 216 217 218 220 221 222 224 225 226 226 226 227 227 227 229 230 230 230 230 232 233 233 233 234 235 236 237 238 238 239 240 239 239 238 235 233
209 213 214 210 207 206 205 206 207 206 207 209 209 208 209 211 212 213 213 213 213 212 213 214 214 215 215 216 218 219 221 222 222 224 226 227 227 227 227 227 228 229 230 230 231 231 232 233 234 234 234 235 236 238 239 240 241 241 241 241 239 236 234
199 208 215 215 212 209 208 207 206 206 208 209 208 208 209 211 212 213 213 213 213 213 213 213 214 215 215 216 220 221 221 222 222 223 225 227 228 228 227 228 229 229 230 231 231 232 231 232 232 233 235 237 237 238 239 241 242 243 244 244 242 239 236
198 201 205 210 212 212 210 208 205 206 207 208 209 209 211 213 213 214 214 213 213 213 213 212 214 215 216 218 221 221 221 222 223 223 225 227 228 228 228 228 228 229 230 231 231 231 230 231 232 234 236 238 239 240 241 242 243 245 245 244 243 242 239
198 200 200 204 208 208 208 205 204 206 208 210 212 213 214 216 216 215 215 214 215 214 212 212 213 216 217 219 220 221 221 222 223 223 225 227 228 229 228 228 228 228 229 230 230 230 230 231 234 235 237 239 241 242 243 244 246 247 246 244 244 243 242
192 198 200 202 204 204 205 204 205 209 211 213 215 216 219 220 218 218 218 218 217 214 211 211 214 216 218 218 219 221 223 223 223 223 225 227 228 228 228 227 227 228 228 229 230 231 232 233 235 236 238 240 242 244 245 247 249 248 247 245 245 245 243
190 194 198 201 204 205 205 204 206 210 213 214 216 219 222 222 222 223 224 221 217 213 211 213 214 216 218 218 218 221 224 224 223 224 225 226 227 226 226 226 226 227 228 229 230 231 232 234 235 237 239 240 243 245 248 250 250 249 248 247 247 246 244
191 191 194 198 203 206 206 205 207 210 212 214 216 220 221 222 223 224 223 220 216 213 213 214 214 216 217 218 218 221 223 224 224 225 225 225 225 225 226 226 226 227 228 228 230 231 233 235 236 238 240 242 244 246 248 250 250 250 249 248 248 247 245
204 199 197 198 202 206 207 208 209 211 212 213 215 218 220 221 222 222 221 218 216 215 215 215 215 216 217 218 219 220 223 225 225 225 224 224 224 224 225 226 226 227 228 229 230 232 234 236 238 240 242 243 245 246 247 249 250 249 249 248 247 246 244
250 226 216 212 210 207 208 210 210 211 212 214 216 218 219 220 220 220 218 217 216 217 217 215 215 216 218 219 220 221 223 224 225 224 223 222 223 224 225 226 227 227 228 229 230 232 234 237 239 241 242 243 244 245 246 247 248 248 247 246 245 244 242
36 300 230 230 224 216 213 213 213 212 213 215 216 219 220 220 219 217 217 216 216 217 217 216 217 218 219 220 221 222 223 224 224 224 222 222 223 224 225 226 226 228 229 230 231 233 236 238 239 240 241 242 243 245 246 247 247 246 246 245 243 242 242
40 51 79 227 233 229 224 222 221 219 217 218 219 220 221 222 219 217 216 217 217 217 217 218 219 220 220 222 224 223 223 223 224 223 222 222 224 224 224 225 226 228 229 231 232 235 237 238 238 239 239 240 242 244 245 246 245 244 244 243 241 240 241
21 33 47 60 240 239 235 232 231 227 223 221 222 223 223 222 219 217 217 218 218 217 218 221 223 224 224 225 225 223 222 222 223 223 222 222 223 224 224 225 225 226 228 229 230 232 235 236 236 237 237 238 238 240 241 241 241 241 240 237 235 234 235
4 3 5 23 32 337 263 243 239 237 232 229 228 228 226 222 218 218 220 220 218 220 223 225 226 226 227 226 225 224 223 222 223 223 222 221 221 221 221 223 224 226 226 226 226 228 231 232 233 233 234 234 235 235 236 237 236 234 230 228 228 228 228
3 352 337 331 329 331 325 276 248 242 239 236 234 234 231 227 224 224 224 222 221 223 226 227 227 227 226 226 225 225 224 223 223 222 220 218 217 217 219 222 224 224 225 223 223 224 226 227 228 228 227 228 230 232 233 231 227 224 223 224 225 222 221
2 353 335 324 316 311 308 301 284 259 244 237 235 234 232 228 227 226 225 225 226 228 228 228 227 227 225 224 224 225 224 223 221 220 218 216 214 214 216 220 221 221 221 220 220 221 222 221 221 221 220 221 222 223 224 223 220 220 224 227 221 214 210
349 346 336 320 311 308 299 290 291 288 265 246 236 233 230 225 222 222 223 224 227 229 228 227 226 225 224 223 223 223 224 223 220 218 216 215 213 211 213 217 219 218 217 217 216 217 216 215 215 215 215 214 215 215 213 212 215 221 229 226 214 205 202
336 330 325 314 301 295 291 284 280 280 279 267 249 239 235 230 223 220 221 222 224 224 224 226 227 225 224 223 223 223 222 221 219 216 216 215 211 209 211 214 214 212 212 212 213 212 211 210 211 212 211 210 210 209 205 203 211 224 227 220 210 202 201
329 317 311 305 296 285 277 273 270 262 257 259 256 248 246 242 233 226 224 225 226 225 222 225 233 232 229 226 224 223 221 219 216 213 212 211 210 210 212 213 212 210 207 205 206 208 208 209 208 206 206 205 204 203 203 206 216 221 216 212 210 207 204
336 322 310 303 300 294 281 268 260 253 248 247 245 243 247 248 244 238 233 230 230 229 226 226 233 235 230 226 222 220 217 213 209 206 204 203 204 205 206 206 205 201 196 196 202 206 206 207 205 200 200 201 201 203 208 213 215 211 206 206 208 207 205
352 330 314 302 294 292 288 277 262 253 253 253 248 242 239 239 239 238 237 235 235 236 232 229 229 228 225 223 220 215 210 207 204 200 196 193 192 192 192 192 191 191 194 205 213 212 208 206 205 203 203 203 202 203 209 213 211 206 203 204 205 205 204
18 353 333 318 303 295 291 282 269 256 254 260 261 254 245 239 235 234 234 235 236 236 233 227 224 223 221 220 218 212 205 201 199 195 191 187 184 184 187 190 193 198 207 216 217 216 215 211 205 205 205 203 199 203 210 212 208 203 200 201 202 203 203
38 22 4 349 334 318 302 286 275 265 259 261 266 263 253 243 235 229 228 229 231 234 232 224 218 216 213 211 211 206 198 193 190 189 189 187 184 183 186 192 198 204 209 209 208 210 213 210 201 198 196 193 196 208 214 206 195 188 187 190 192 196 199
50 43 33 23 13 354 318 291 275 265 255 250 254 257 251 241 229 221 220 221 222 223 217 206 201 197 189 186 190 190 186 184 184 184 185 185 183 183 186 189 191 194 199 200 196 191 190 190 189 189 190 190 194 197 193 183 177 175 176 179 184 189 193
60 56 53 49 41 27 349 306 262 223 206 201 213 230 232 229 223 215 211 210 205 194 180 175 181 183 176 172 178 177 173 173 175 176 175 177 179 182 186 185 181 180 182 184 181 177 177 180 184 192 198 198 194 188 178 173 175 175 173 176 183 186 188
Height
1437 1440 1442 1445 1447 1450 1453 1456 1459 1461 1464 1466 1469 1472 1475 1478 1481 1483 1486 1488 1491 1495 1499 1502 1504 1507 1509 1512 1515 1518 1520 1521 1522 1523 1525 1528 1530 1532 1534 1536 1537 1538 1539 1540 1541 1543 1544 1546 1548 1549 1551 1551 1552 1553 1555 1556 1557 1558 1559 1559 1560 1560 1561
1433 1436 1438 1441 1443 1446 1448 1451 1454 1456 1458 1461 1464 1467 1471 1473 1476 1478 1481 1484 1487 1491 1494 1498 1501 1503 1506 1509 1512 1514 1517 1518 1519 1521 1522 1524 1527 1529 1532 1533 1534 1536 1537 1538 1539 1541 1542 1544 1546 1548 1549 1549 1550 1552 1553 1554 1555 1556 1557 1557 1558 1559 1560
1429 1431 1433 1437 1439 1441 1444 1446 1448 1451 1453 1456 1459 1462 1465 1467 1470 1473 1477 1480 1484 1488 1491 1494 1497 1500 1503 1506 1508 1511 1513 1515 1516 1517 1519 1521 1524 1526 1529 1530 1532 1533 1535 1536 1537 1538 1540 1542 1544 1545 1546 1547 1548 1550 1551 1552 1553 1554 1555 1556 1556 1557 1558
1424 1425 1428 1432 1433 1436 1438 1441 1444 1446 1448 1451 1453 1456 1459 1462 1466 1470 1473 1476 1480 1483 1486 1490 1493 1496 1499 1501 1504 1507 1509 1511 1513 1514 1516 1518 1521 1524 1526 1527 1529 1530 1532 1533 1535 1536 1537 1539 1541 1543 1544 1545 1546 1548 1549 1550 1551 1552 1553 1553 1554 1555 1556
1420 1421 1424 1426 1428 1431 1434 1436 1439 1441 1444 1446 1448 1451 1455 1459 1463 1467 1470 1473 1476 1479 1481 1485 1488 1491 1494 1497 1500 1502 1504 1507 1509 1511 1513 1515 1518 1521 1522 1524 1525 1527 1528 1530 1532 1533 1535 1536 1538 1540 1541 1542 1544 1545 1547 1548 1549 1550 1551 1552 1552 1553 1554
1415 1417 1419 1421 1423 1426 1428 1431 1434 1435 1438 1441 1444 1448 1452 1457 1460 1463 1466 1469 1472 1475 1478 1481 1484 1487 1490 1492 1495 1498 1500 1503 1505 1508 1510 1512 1515 1517 1518 1520 1522 1524 1525 1527 1529 1530 1532 1533 1535 1536 1538 1539 1541 1543 1544 1545 1547 1548 1549 1549 1550 1551 1552
1410 1412 1415 1417 1419 1421 1423 1426 1429 1431 1434 1438 1442 1446 1450 1453 1456 1459 1462 1465 1468 1471 1474 1477 1480 1482 1485 1487 1490 1493 1495 1499 1502 1504 1507 1509 1511 1513 1514 1517 1519 1520 1522 1524 1525 1527 1528 1530 1531 1533 1535 1536 1538 1540 1541 1542 1544 1545 1546 1547 1548 1549 1550
1404 1406 1409 1412 1414 1417 1419 1422 1425 1428 1432 1436 1439 1442 1445 1448 1452 1455 1458 1460 1463 1466 1468 1471 1475 1478 1480 1483 1485 1488 1491 1494 1498 1500 1503 1505 1507 1509 1511 1513 1515 1517 1519 1520 1522 1523 1525 1526 1528 1530 1532 1533 1535 1537 1538 1539 1541 1542 1543 1544 1545 1546 1548
1399 1401 1403 1406 1409 1412 1415 1418 1421 1424 1428 1432 1434 1437 1441 1444 1447 1450 1453 1456 1459 1461 1463 1467 1471 1474 1477 1479 1481 1483 1487 1490 1493 1496 1499 1501 1503 1505 1507 1509 1511 1514 1515 1517 1519 1520 1522 1523 1525 1527 1528 1530 1532 1533 1534 1536 1538 1539 1540 1541 1543 1544 1545
1395 1397 1399 1401 1404 1407 1410 1414 1417 1421 1424 1427 1430 1433 1436 1440 1443 1446 1449 1452 1455 1457 1460 1464 1468 1471 1473 1475 1477 1480 1483 1486 1489 1492 1495 1497 1498 1500 1503 1505 1508 1510 1511 1513 1515 1517 1518 1520 1522 1523 1525 1526 1527 1529 1530 1532 1534 1536 1537 1539 1540 1541 1542
1391 1394 1395 1398 1400 1404 1408 1411 1415 1418 1420 1423 1426 1429 1432 1435 1439 1442 1446 1448 1450 1454 1458 1461 1464 1467 1469 1471 1474 1477 1479 1481 1484 1487 1490 1492 1494 1496 1499 1501 1504 1506 1507 1509 1511 1513 1515 1517 1518 1519 1520 1521 1523 1525 1526 1528 1531 1533 1534 1536 1538 1539 1540
1388 1390 1392 1395 1397 1400 1404 1407 1411 1413 1416 1420 1423 1426 1429 1432 1435 1438 1442 1445 1448 1451 1455 1458 1461 1463 1464 1467 1470 1472 1475 1477 1479 1482 1485 1487 1489 1492 1495 1497 1500 1501 1503 1505 1507 1509 1511 1513 1514 1515 1516 1518 1520 1522 1524 1526 1528 1529 1531 1533 1535 1536 1538
1386 1387 1389 1391 1393 1397 1400 1403 1406 1408 1412 1416 1419 1422 1425 1428 1431 1434 1437 1440 1444 1448 1451 1455 1457 1459 1461 1463 1465 1467 1469 1471 1474 1476 1480 1483 1485 1488 1491 1493 1495 1497 1499 1501 1503 1505 1506 1508 1510 1511 1513 1515 1517 1519 1521 1523 1525 1526 1528 1530 1532 1534 1535
1384 1385 1386 1387 1390 1394 1396 1399 1401 1403 1407 1411 1415 1419 1422 1424 1427 1430 1433 1436 1440 1444 1447 1450 1453 1454 1456 1458 1461 1462 1464 1466 1469 1472 1475 1478 1481 1484 1487 1489 1491 1493 1495 1497 1499 1500 1502 1503 1506 1508 1511 1513 1515 1517 1518 1520 1521 1522 1524 1526 1528 1531 1532
1381 1384 1386 1387 1388 1390 1392 1395 1397 1400 1404 1407 1410 1414 1417 1421 1424 1426 1429 1432 1436 1440 1442 1445 1448 1450 1452 1454 1455 1457 1459 1463 1466 1468 1471 1474 1477 1480 1482 1484 1487 1490 1492 1494 1495 1497 1499 1501 1504 1506 1509 1511 1512 1514 1515 1516 1517 1518 1520 1522 1525 1527 1530
1376 1379 1383 1385 1387 1388 1390 1392 1394 1397 1401 1404 1407 1411 1414 1417 1420 1422 1425 1428 1431 1435 1438 1441 1444 1445 1447 1448 1449 1452 1456 1459 1461 1464 1467 1469 1472 1475 1478 1481 1483 1486 1488 1490 1492 1494 1496 1499 1501 1504 1506 1507 1509 1511 1511 1512 1513 1514 1517 1519 1521 1524 1527
1370 1373 1376 1380 1383 1385 1387 1390 1392 1395 1398 1401 1404 1407 1411 1413 1416 1418 1421 1424 1427 1430 1433 1436 1439 1440 1441 1443 1445 1449 1452 1455 1457 1460 1462 1464 1467 1471 1474 1477 1480 1482 1485 1487 1489 1492 1494 1497 1499 1500 1502 1504 1505 1507 1507 1508 1510 1512 1514 1516 1518 1522 1524
1368 1369 1371 1374 1377 1380 1384 1387 1390 1393 1396 1399 1402 1404 1407 1410 1413 1415 1418 1420 1423 1425 1429 1432 1434 1436 1437 1439 1443 1446 1448 1450 1453 1455 1457 1460 1463 1466 1470 1473 1477 1479 1482 1484 1486 1489 1491 1493 1495 1497 1499 1501 1502 1503 1504 1505 1507 1509 1511 1513 1516 1519 1522
1366 1368 1369 1371 1373 1377 1380 1384 1387 1390 1393 1396 1398 1401 1404 1406 1409 1411 1413 1415 1418 1422 1426 1428 1430 1432 1433 1436 1439 1442 1444 1446 1448 1451 1453 1455 1458 1462 1466 1470 1473 1476 1479 1481 1484 1486 1488 1490 1491 1494 1496 1497 1498 1500 1501 1503 1505 1506 1508 1511 1514 1517 1519
1365 1367 1369 1371 1373 1375 1378 1381 1384 1388 1390 1393 1396 1398 1401 1403 1405 1407 1409 1412 1415 1419 1422 1424 1425 1428 1429 1432 1435 1438 1440 1443 1444 1446 1449 1451 1455 1459 1463 1466 1469 1473 1476 1479 1481 1483 1484 1486 1489 1491 1493 1494 1496 1497 1499 1500 1502 1503 1506 1509 1512 1514 1516
1364 1366 1367 1369 1372 1374 1376 1379 1382 1385 1388 1391 1394 1396 1398 1400 1402 1405 1407 1409 1413 1415 1417 1419 1421 1423 1425 1428 1430 1433 1436 1438 1440 1442 1445 1448 1452 1456 1459 1463 1466 1470 1473 1476 1478 1480 1482 1484 1486 1488 1490 1492 1493 1495 1496 1498 1499 1501 1504 1506 1509 1511 1512
1367 1367 1367 1367 1368 1370 1372 1375 1378 1382 1385 1388 1390 1393 1395 1397 1399 1401 1404 1406 1409 1411 1412 1414 1416 1418 1420 1423 1425 1428 1431 1433 1435 1438 1441 1445 1449 1452 1456 1459 1462 1466 1470 1473 1476 1478 1480 1483 1485 1486 1488 1489 1491 1492 1493 1495 1496 1498 1501 1504 1506 1508 1509
1370 1370 1369 1369 1369 1369 1370 1373 1376 1378 1381 1383 1386 1388 1390 1392 1394 1396 1399 1402 1404 1407 1408 1410 1412 1414 1416 1417 1419 1422 1425 1428 1431 1433 1437 1441 1445 1448 1452 1455 1459 1463 1467 1470 1473 1475 1478 1480 1482 1483 1484 1486 1488 1489 1490 1492 1494 1496 1499 1501 1503 1505 1505
1369 1369 1369 1370 1371 1371 1372 1373 1374 1376 1378 1379 1381 1384 1386 1389 1391 1393 1396 1398 1400 1403 1405 1406 1408 1409 1411 1412 1414 1417 1420 1423 1426 1429 1433 1437 1440 1444 1448 1452 1456 1459 1463 1466 1469 1471 1474 1476 1478 1480 1481 1483 1485 1487 1488 1489 1492 1494 1497 1499 1501 1502 1502
1368 1369 1369 1369 1371 1372 1372 1374 1374 1375 1377 1378 1379 1382 1383 1385 1387 1389 1391 1393 1395 1398 1400 1402 1403 1405 1406 1407 1409 1412 1415 1419 1423 1426 1429 1433 1436 1440 1444 1448 1452 1456 1459 1462 1465 1468 1471 1473 1474 1476 1478 1481 1483 1484 1486 1488 1490 1492 1494 1496 1497 1498 1499
1368 1368 1368 1368 1369 1370 1372 1373 1373 1374 1375 1376 1377 1378 1380 1382 1384 1385 1386 1388 1391 1394 1395 1397 1398 1400 1402 1403 1406 1409 1413 1416 1420 1423 1425 1429 1433 1437 1441 1445 1449 1452 1455 1458 1461 1464 1467 1469 1471 1473 1476 1478 1480 1482 1484 1486 1487 1489 1491 1492 1494 1495 1496
1368 1367 1367 1368 1368 1368 1369 1370 1371 1372 1373 1374 1375 1375 1376 1378 1381 1382 1383 1385 1386 1387 1389 1391 1393 1396 1399 1401 1404 1407 1410 1414 1417 1419 1422 1426 1431 1435 1439 1442 1445 1448 1450 1453 1457 1460 1462 1465 1467 1470 1473 1475 1477 1479 1481 1482 1484 1486 1487 1489 1490 1491 1492
1368 1367 1366 1366 1366 1366 1367 1368 1369 1369 1370 1372 1373 1373 1374 1375 1377 1379 1381 1381 1381 1382 1384 1386 1389 1392 1394 1397 1401 1404 1406 1410 1413 1416 1420 1424 1428 1432 1436 1439 1441 1443 1445 1448 1452 1455 1458 1461 1464 1466 1469 1471 1474 1476 1477 1479 1481 1483 1484 1486 1488 1489 1489
1367 1366 1366 1365 1365 1365 1366 1366 1366 1367 1367 1368 1369 1370 1371 1372 1373 1375 1376 1377 1377 1379 1380 1383 1386 1389 1391 1394 1397 1400 1402 1405 1409 1413 1417 1420 1424 1427 1431 1434 1436 1438 1440 1443 1447 1451 1454 1457 1460 1463 1465 1468 1470 1472 1474 1476 1478 1480 1482 1484 1485 1486 1487
1365 1366 1366 1365 1365 1365 1365 1366 1365 1365 1365 1365 1366 1367 1369 1370 1371 1372 1373 1374 1375 1377 1379 1381 1384 1387 1390 1392 1394 1396 1399 1401 1404 1408 1412 1415 1418 1422 1426 1429 1430 1432 1435 1439 1443 1446 1450 1453 1456 1459 1461 1464 1467 1469 1472 1475 1477 1480 1482 1483 1483 1485 1486
1363 1364 1364 1365 1364 1364 1364 1365 1365 1364 1364 1363 1364 1365 1366 1368 1370 1371 1372 1373 1374 1376 1378 1382 1385 1386 1388 1390 1393 1394 1396 1398 1400 1403 1406 1409 1412 1415 1420 1423 1425 1427 1431 1435 1439 1443 1446 1450 1453 1455 1458 1461 1464 1467 1471 1474 1477 1479 1482 1484 1484 1484 1485
1364 1363 1362 1362 1362 1361 1362 1363 1363 1363 1362 1361 1361 1362 1363 1365 1367 1368 1369 1371 1372 1373 1376 1380 1385 1388 1389 1390 1391 1392 1394 1395 1397 1400 1402 1404 1407 1411 1414 1417 1421 1424 1428 1432 1436 1440 1444 1447 1450 1453 1457 1459 1462 1466 1469 1471 1473 1476 1479 1482 1484 1483 1483
1364 1362 1361 1360 1359 1359 1359 1360 1360 1360 1360 1359 1359 1358 1359 1360 1362 1363 1365 1367 1370 1372 1373 1375 1380 1385 1388 1389 1389 1390 1391 1393 1395 1398 1400 1403 1406 1409 1413 1417 1419 1422 1427 1433 1438 1442 1444 1446 1448 1451 1454 1457 1461 1464 1465 1466 1467 1469 1473 1477 1479 1480 1481
1363 1361 1361 1359 1358 1357 1356 1356 1357 1357 1356 1356 1356 1355 1356 1356 1357 1359 1360 1361 1364 1366 1368 1369 1371 1375 1381 1386 1389 1389 1389 1389 1391 1393 1397 1401 1404 1408 1412 1416 1420 1425 1431 1437 1441 1442 1443 1443 1446 1449 1451 1454 1458 1460 1462 1463 1463 1464 1468 1472 1475 1477 1478
1362 1361 1360 1359 1358 1356 1355 1355 1355 1354 1354 1354 1353 1353 1354 1354 1354 1355 1355 1356 1357 1359 1361 1363 1364 1366 1371 1377 1384 1388 1388 1387 1386 1387 1389 1394 1399 1405 1411 1417 1423 1429 1433 1436 1438 1440 1441 1442 1444 1447 1450 1452 1455 1458 1460 1463 1463 1464 1468 1471 1473 1475 1476
1363 1362 1360 1358 1357 1356 1355 1355 1354 1353 1352 1352 1351 1352 1352 1351 1351 1351 1351 1352 1353 1354 1355 1357 1360 1363 1367 1370 1374 1378 1382 1383 1383 1384 1386 1389 1394 1401 1410 1417 1422 1426 1429 1433 1437 1440 1442 1443 1445 1447 1449 1451 1454 1457 1459 1462 1463 1465 1467 1469 1471 1473 1476
1364 1362 1360 1358 1357 1355 1355 1354 1353 1352 1351 1350 1349 1350 1350 1349 1349 1348 1349 1350 1351 1353 1353 1354 1357 1362 1367 1370 1370 1370 1371 1375 1378 1379 1382 1385 1390 1396 1403 1411 1417 1423 1427 1432 1436 1437 1440 1443 1446 1448 1450 1452 1454 1456 1459 1462 1464 1465 1466 1468 1470 1472 1474
1365 1363 1362 1359 1358 1357 1355 1354 1352 1352 1350 1350 1350 1350 1349 1348 1347 1347 1347 1348 1349 1352 1354 1355 1358 1361 1364 1369 1372 1366 1361 1366 1375 1378 1379 1383 1389 1394 1399 1405 1412 1420 1426 1430 1433 1435 1438 1442 1445 1448 1450 1452 1453 1455 1458 1461 1463 1464 1465 1466 1468 1470 1472